Sally Plumb Plumb

Veteran Poet - 1,093 Points (23 9 1940 / Haverhill Suffolk England)

Stats

» Click to list general statistics » OR, select a date :

General Statistics

Visitors of the poet

Number of visitors of the poet’s mainpage in PoemHunter.Com

Attention : Numbers in this table does not indicate the total hits of poems of the poet, but indicates the hits of the poet’s main page.

Date Hits
05/26/2015 Tuesday 292
69%
05/25/2015 Monday 350
82%
05/24/2015 Sunday 422
100%
05/23/2015 Saturday 260
61%
05/22/2015 Friday 254
60%
05/21/2015 Thursday 88
20%
05/20/2015 Wednesday 127
30%
05/19/2015 Tuesday 204
48%
05/18/2015 Monday 235
55%
05/17/2015 Sunday 126
29%
05/16/2015 Saturday 122
28%
05/15/2015 Friday 223
52%
05/14/2015 Thursday 171
40%
05/13/2015 Wednesday 144
34%
05/12/2015 Tuesday 147
34%
05/11/2015 Monday 172
40%
05/10/2015 Sunday 113
26%
05/09/2015 Saturday 95
22%
05/08/2015 Friday 126
29%
05/07/2015 Thursday 185
43%

Reader rating & num.of MyPoemList’s

Click the captions of columns to change the order.

# Poem Title Submit Date Reader Rating Num.of MyPoemList’s
Rating Num.R.
1 Rocker Song 03/31/2015 -- 0 0
2 Nightwatch 11/04/2014 10.0 1 0
3 A Boy And A Frog (Kids Stuff) 10/23/2014 -- 0 1
4 The Slow Walk 08/09/2014 10.0 1 0
5 After 08/08/2014 -- 0 0
6 The Contest 06/05/2014 -- 0 0
7 Barn Owl 05/09/2014 10.0 1 0
8 Listen 05/08/2014 -- 0 0
9 Harmony 05/07/2014 10.0 1 0
10 Conflict 02/24/2014 10.0 2 0
11 Confession 02/11/2014 -- 0 0
12 Night Bird 02/07/2014 -- 0 0
13 Ebb Tide 02/03/2014 10.0 1 0
14 Many Hollows 01/03/2014 7.5 2 0
15 Night Ways 01/02/2014 -- 0 0
16 The Lion 01/01/2014 7.0 1 0
17 The Appointment 12/24/2013 -- 0 0
18 Flippancy 12/22/2013 9.0 2 0
19 Hit 12/21/2013 10.0 1 0
20 Negativity 11/11/2013 10.0 2 0
21 Too Old 10/28/2013 10.0 3 0
22 Three Phases 09/28/2013 10.0 1 0
23 Frightened Fourteen (Kids Stuff) 09/27/2013 10.0 1 0
24 Killing Time 09/23/2013 8.5 2 0
25 Rumour 08/30/2013 -- 0 0
26 Separation 08/14/2013 10.0 3 2
27 Shades Of Love 08/01/2013 10.0 4 1
28 Getting Fat 06/28/2013 9.7 3 0
29 Infinity 05/08/2013 9.9 9 1
30 Twilight 03/30/2013 10.0 4 2
31 Mind Healer 03/19/2013 9.5 2 0
32 Mute 03/18/2013 9.5 4 0
33 Down The Drain 03/07/2013 9.7 3 0
34 Monday Morning 03/06/2013 10.0 1 0
35 Imagination 03/05/2013 10.0 1 0
36 Earth Fire 12/08/2012 10.0 1 0
37 Nightmare 10/20/2012 10.0 2 0
38 Workday Weekday 10/17/2012 -- 0 0
39 Remorse 10/07/2012 -- 0 0
40 High Hopes 10/06/2012 -- 0 0
41 Lost For Words 10/04/2012 10.0 1 0
42 Confused? 08/15/2012 -- 0 0
43 Breakdown 08/14/2012 10.0 4 0
44 Departure 08/07/2012 10.0 2 0
45 Seagull 07/11/2012 10.0 4 0
46 Late Friday Night 06/29/2012 9.7 3 0
47 Rig Divers North Sea 06/28/2012 -- 0 0
48 Gossips 06/27/2012 10.0 3 0
49 Another Shade Of Blue 06/27/2012 10.0 5 1
50 Score 04/22/2012 10.0 2 0
51 Request 04/21/2012 10.0 1 0
52 Tough Love 04/18/2012 10.0 3 0
53 Stairway 03/23/2012 10.0 1 0
54 Wind And Rain 02/20/2012 10.0 3 0
55 Dawn 02/09/2012 -- 0 0
56 Defeat 02/08/2012 10.0 2 0
57 Jack Spratt 12/27/2011 9.7 3 0
58 Beyond 12/06/2011 -- 0 0
59 Undressed 12/05/2011 -- 0 0
60 Letter 11/28/2011 10.0 1 0
61 Fantasia 11/24/2011 -- 0 0
62 Betrayel 11/22/2011 -- 0 0
63 Grandmama 11/21/2011 -- 0 0
64 Crimes 11/01/2011 9.7 3 0
65 Swing High Swing Low 10/07/2011 10.0 1 1
66 Destiny 10/05/2011 10.0 1 0
67 Silken Thread 10/02/2011 -- 0 0
68 Seeing You 10/01/2011 10.0 1 0
69 Fractions 09/30/2011 -- 0 0
70 Question 09/28/2011 -- 0 0
71 Birth 09/09/2011 -- 0 0
72 The Voice Of Seduction 09/07/2011 -- 0 0
73 Second Depression 08/10/2011 -- 0 0
74 Crumbs 08/06/2011 10.0 1 0
75 Night Sky 07/08/2011 9.0 2 0
76 The Social Divide 07/04/2011 -- 0 0
77 Retort 07/01/2011 10.0 1 0
78 Mr Jones 06/15/2011 -- 0 0
79 Bitter Beginning 06/13/2011 -- 0 0
80 Imagine 06/03/2011 -- 0 0
81 Gabriel 06/02/2011 -- 0 0
82 The Shift Worker 05/25/2011 8.0 1 0
83 Downtown 05/20/2011 -- 0 0
84 Skin 05/19/2011 -- 0 0
85 Natural Tempo 05/18/2011 10.0 2 0
86 Magical Night 04/14/2011 10.0 1 0
87 Conversation 04/12/2011 -- 0 0
88 Aunt Summer Rose (Kids Stuff) 04/08/2011 -- 0 0
89 Eden's Gate 04/07/2011 -- 0 0
90 First Season 03/29/2011 -- 0 0
91 November 03/09/2011 10.0 1 0
92 Chores 03/08/2011 10.0 1 0
93 Torment 03/05/2011 -- 0 0
94 Over Time 02/19/2011 -- 0 0
95 The Thaw 02/18/2011 10.0 1 0
96 Jukes Song 02/14/2011 -- 0 0
97 Thinks Party 02/12/2011 10.0 2 1
98 Predator 02/11/2011 -- 0 0
99 Headless 02/08/2011 6.0 1 0
100 Annie May 01/06/2011 10.0 1 0
101 Look 01/05/2011 -- 0 0
102 Slough Of Despond 12/11/2010 10.0 2 0
103 The Dryad 12/04/2010 -- 0 0
104 Christmas Day 12/03/2010 10.0 1 0
105 Snake Skin 12/01/2010 10.0 1 0
106 Opposition 11/12/2010 -- 0 0
107 Natures Way 10/13/2010 -- 0 0
108 Bad Rivers 10/12/2010 10.0 3 0
109 Calling Wind 10/01/2010 9.8 4 0
110 Decision 09/23/2010 10.0 1 0
111 Passing Tedious Time 08/26/2010 -- 0 0
112 Zero 08/10/2010 10.0 3 0
113 1957 08/04/2010 9.5 4 0
114 Singing Lesson 08/02/2010 -- 0 0
115 Evening At Home 06/29/2010 10.0 2 0
116 Not Tonight 06/28/2010 -- 0 0
117 6 P.M. 06/08/2010 9.5 2 0
118 Orange 06/01/2010 10.0 1 0
119 Yellow Iris 05/23/2010 10.0 1 0
120 Shower 05/22/2010 -- 0 0
121 Reunion 05/17/2010 -- 0 0
122 Shadow 05/16/2010 10.0 1 0
123 Explanation 05/15/2010 -- 0 0
124 Spirit 05/14/2010 10.0 2 1
125 The Haunted 05/13/2010 10.0 1 0
126 Live Music 05/13/2010 10.0 1 0
127 Wren 03/13/2010 10.0 1 0
128 Spring Weather 03/12/2010 -- 0 0
129 Breathing 02/09/2010 10.0 3 1
130 Unfamiliar Fantasy 01/22/2010 10.0 1 0
131 Climate Change 12/26/2009 10.0 1 0
132 Missing Person 12/25/2009 -- 0 0
133 Languor 12/24/2009 10.0 1 0
134 Side Affects 12/23/2009 10.0 2 0
135 Unspeakable 12/22/2009 10.0 1 0
136 Summer 12/14/2009 10.0 1 0
137 High 12/12/2009 -- 0 0
138 Speechless 12/05/2009 10.0 2 1
139 Insight 11/14/2009 10.0 3 0
140 The Haunted Sea (Kids Stuff) 11/05/2009 10.0 2 0
141 Flight 10/15/2009 10.0 3 0
142 Ripple 10/09/2009 10.0 1 0
143 Perfect Silence 10/07/2009 8.9 7 1
144 Starters 10/02/2009 10.0 1 0
145 Pastel 09/24/2009 10.0 3 0
146 Sleep 09/18/2009 10.0 4 0
147 Spirit Wings 09/07/2009 10.0 1 0
148 Annoyance 09/05/2009 10.0 3 0
149 Lyric 09/02/2009 10.0 3 0
150 Weeping Willow 08/29/2009 9.5 2 3
151 Ritual 08/12/2009 10.0 1 0
152 Enrichment 08/10/2009 10.0 1 0
153 Recruit 07/30/2009 10.0 1 0
154 Bebe 07/29/2009 10.0 3 1
155 Music 07/28/2009 10.0 2 0
156 Saturday Night And Sunday Morning 07/22/2009 -- 0 1
157 The Red Indian 07/10/2009 10.0 1 0
158 Be Kind Be Sweet 07/08/2009 9.5 2 1
159 Late Afternoon 07/07/2009 10.0 1 0
160 Left Undead 07/06/2009 -- 0 0
161 Cloud 07/02/2009 10.0 3 2
162 Foxglove 06/28/2009 10.0 1 0
163 The Chain 06/17/2009 -- 0 0
164 Song Of A Dying Infant 06/03/2009 10.0 1 0
165 Confrontation (Darfur) 05/29/2009 10.0 5 0
166 Late Summer 05/18/2009 -- 0 1
167 A Question Of God 05/17/2009 9.6 10 1
168 Death Of A Woman 05/12/2009 10.0 3 0
169 Angels 05/09/2009 10.0 6 1
170 A Dark Fire 05/08/2009 10.0 6 1
171 Fight 05/07/2009 10.0 2 0
172 We Are 05/06/2009 10.0 3 0
173 Shadow Street 05/05/2009 7.3 3 0
174 Rendezvous 05/04/2009 9.5 2 0
175 Lifting 05/03/2009 10.0 1 0
176 A Humorous Death 05/02/2009 10.0 10 3
177 Thought 05/01/2009 9.5 4 0
178 Leaving 04/30/2009 -- 0 0
179 The Queue 04/29/2009 10.0 1 0
180 Granpa 04/28/2009 10.0 1 0
181 Two Confused 04/27/2009 10.0 1 1
182 Breakfast 04/26/2009 9.7 7 1
183 Happiness Is Sacred 04/25/2009 10.0 1 0
184 Crucible 04/24/2009 9.7 3 0
185 Valentine 04/23/2009 10.0 2 1
186 Hettie 04/06/2009 10.0 2 0
187 Six A.M. 04/04/2009 -- 0 0
188 Diary 04/01/2009 9.3 3 2
189 Possession 03/31/2009 10.0 1 1
190 Pretence 03/30/2009 10.0 1 1
191 Sundial 03/29/2009 7.5 4 0
192 Sleep My Love 03/28/2009 10.0 2 2
193 Reynard 03/27/2009 -- 0 0
194 Lucifer 03/26/2009 -- 0 0
195 Picture 03/25/2009 10.0 1 2
196 Dream On 03/24/2009 10.0 1 2
197 Something Plus 03/23/2009 -- 0 1
198 Love 03/22/2009 10.0 1 0
199 Curse 03/21/2009 -- 0 0
200 Solitude 03/20/2009 10.0 1 1
201 Anger 03/19/2009 10.0 2 2
202 Moon Song 03/18/2009 10.0 2 2
203 Winter 03/15/2009 9.8 5 1
204 Summer Shade 03/15/2009 9.0 2 1
205 Skylark 03/15/2009 10.0 1 0
206 Simplicity 03/14/2009 10.0 1 0
207 Snowdrops 03/14/2009 10.0 1 1
208 Upside Down 03/14/2009 10.0 2 0
209 The Native 03/14/2009 10.0 1 0
210 Search 03/14/2009 10.0 2 0
211 Surprise Suprise 03/14/2009 10.0 1 0
212 Changeover 03/14/2009 10.0 3 1
213 He Is 03/14/2009 10.0 3 0
214 Guide 03/14/2009 10.0 2 1
215 Vow 03/14/2009 10.0 3 0
216 Cats 03/14/2009 9.5 2 1
217 Love After Death 03/14/2009 10.0 1 1
218 The Juveniles 03/14/2009 10.0 2 0
219 Serenade 03/14/2009 10.0 1 0
220 Poppies 03/14/2009 10.0 2 0
221 May 03/14/2009 10.0 1 0
222 Village Tree 03/14/2009 9.5 2 0
223 Sunrise 03/14/2009 10.0 2 1
224 Sparrows 03/14/2009 10.0 3 0
225 Figment 03/14/2009 10.0 2 1
226 A Slow Smoke 03/14/2009 9.8 4 1
227 Time Past 03/14/2009 10.0 2 2
228 Good Night 03/14/2009 10.0 2 1
229 The Satyr 03/14/2009 10.0 1 0
230 Somewhere 03/14/2009 10.0 1 1
231 Formation 03/14/2009 -- 0 1
232 Wildflowers Live On 03/14/2009 10.0 4 2
233 Apple Tree 03/14/2009 10.0 7 2
234 Purer Than White 03/14/2009 10.0 2 0
235 Goodnight Baby Love 03/14/2009 10.0 1 1
236 Storm 03/14/2009 10.0 1 2
237 Headstones 03/14/2009 10.0 1 0
238 Underfoot 03/14/2009 10.0 1 0
239 Fantasy 03/14/2009 10.0 3 1
240 Smile 03/14/2009 10.0 2 2
241 Judas 03/14/2009 10.0 1 0
242 Domestic 03/14/2009 10.0 2 0
243 Ghost 03/14/2009 10.0 2 2
244 Rowley 03/14/2009 -- 0 0
245 Starless 03/14/2009 10.0 2 2
246 Reflection 03/14/2009 -- 0 2
247 Pretty 03/14/2009 9.0 2 1
[Hata Bildir]